Liberty, KS

6:31 AM CST on February 06, 2016 (GMT -0600)
Coffeyville Municipal

Weather History for KCFV - November, 2011

Change the Weather History Date:

Thursday, November 3, 2011

  Actual Average Record
Temperature  
Mean Temperature 46 °F -  
Max Temperature 55 °F 60 °F 79 °F (2003)
Min Temperature 37 °F 40 °F 26 °F (2006)
Degree Days  
Heating Degree Days 19    
Moisture  
Dew Point 31 °F    
Average Humidity 64    
Maximum Humidity 87    
Minimum Humidity 33    
Precipitation  
Precipitation 0.02 in - - ()
Sea Level Pressure  
Sea Level Pressure 30.22 in    
Wind  
Wind Speed 19 mph (NW)    
Max Wind Speed 29 mph    
Max Gust Speed 39 mph    
Visibility 10 miles    
Events Rain    
Averages and records for this station are not official NWS values.
T = Trace of Precipitation, MM = Missing Value Source: NWS Daily Summary

Daily Weather History Graph

Daily Weather History Graph

Search for Another Location

Airport or City:

Trip Planner

Search our weather history database for the weather conditions in past years. The results will help you decide how hot, cold, wet, or windy it might be!

Date:

Astronomy

Nov. 03, 2011 Rise Set
Actual Time 7:48 AM CDT 6:22 PM CDT
Civil Twilight 7:21 AM CDT 6:49 PM CDT
Nautical Twilight 6:50 AM CDT 7:20 PM CDT
Astronomical Twilight 6:20 AM CDT 7:51 PM CDT
Moon 2:38 PM CDT (11/3) 1:10 AM CDT (11/3)
Length of Visible Light 11h 28m
Length of Day
10h 34m
First Quarter, 60% of the Moon is Illuminated
Nov 3
First Quarter
Nov 10
Full
Nov 18
Last Quarter
Nov 25
New
Dec 2
First Quarter

Hourly Weather History & Observations

Time (CDT) Temp. Windchill Dew Point Humidity Pressure Visibility Wind Dir Wind Speed Gust Speed Precip Events Conditions
12:52 AM 41.0 °F 31.6 °F 37.0 °F 86% 30.13 in 10.0 mi NW 20.7 mph 29.9 mph 0.01 in Rain Light Rain
1:52 AM 39.9 °F 29.0 °F 35.1 °F 83% 30.13 in 10.0 mi NNW 26.5 mph 39.1 mph 0.01 in Rain Light Rain
1:59 AM 39.2 °F 27.6 °F 35.6 °F 87% 30.13 in 10.0 mi NNW 28.8 mph 36.8 mph 0.00 in   Overcast
2:52 AM 41.0 °F 31.6 °F 35.1 °F 79% 30.13 in 10.0 mi NW 20.7 mph 39.1 mph 0.00 in   Overcast
3:52 AM 41.0 °F 31.4 °F 34.0 °F 76% 30.15 in 10.0 mi NNW 21.9 mph 35.7 mph N/A   Overcast
3:59 AM 41.0 °F 30.2 °F 33.8 °F 76% 30.15 in 10.0 mi NW 27.6 mph 34.5 mph N/A   Overcast
4:52 AM 41.0 °F 32.8 °F 32.0 °F 70% 30.16 in 10.0 mi NW 16.1 mph 24.2 mph N/A   Mostly Cloudy
5:52 AM 39.9 °F 30.5 °F 30.9 °F 70% 30.19 in 10.0 mi NW 19.6 mph 31.1 mph N/A   Mostly Cloudy
6:52 AM 39.9 °F 31.1 °F 30.0 °F 68% 30.20 in 10.0 mi NW 17.3 mph 26.5 mph N/A   Clear
7:52 AM 39.0 °F 29.9 °F 30.0 °F 70% 30.23 in 10.0 mi NW 17.3 mph - N/A   Clear
8:52 AM 39.9 °F 30.8 °F 30.0 °F 68% 30.25 in 10.0 mi NW 18.4 mph - N/A   Clear
9:52 AM 42.1 °F 33.9 °F 30.9 °F 65% 30.27 in 10.0 mi NW 17.3 mph 27.6 mph N/A   Clear
11:52 AM 50.0 °F - 32.0 °F 50% 30.28 in 10.0 mi NNW 20.7 mph - N/A   Clear
12:52 PM 52.0 °F - 32.0 °F 47% 30.27 in 10.0 mi NNW 18.4 mph 32.2 mph N/A   Clear
2:52 PM 55.0 °F - 30.0 °F 38% 30.24 in 10.0 mi NNW 18.4 mph - N/A   Clear
3:52 PM 55.0 °F - 27.0 °F 34% 30.23 in 10.0 mi NNW 12.7 mph 24.2 mph N/A   Clear
4:52 PM 55.0 °F - 26.1 °F 33% 30.23 in 10.0 mi NNW 17.3 mph 26.5 mph N/A   Clear
6:52 PM 46.0 °F 44.8 °F 28.0 °F 50% 30.25 in 10.0 mi NNW 3.5 mph - N/A   Clear
7:52 PM 45.0 °F 41.8 °F 27.0 °F 49% 30.26 in 10.0 mi NW 5.8 mph - N/A   Clear
8:52 PM 41.0 °F 38.0 °F 30.0 °F 65% 30.28 in 10.0 mi WNW 4.6 mph - N/A   Clear
10:52 PM 37.9 °F 35.5 °F 28.9 °F 70% 30.30 in 10.0 mi NW 3.5 mph - N/A   Clear
11:52 PM 37.0 °F 34.5 °F 28.0 °F 70% 30.29 in 10.0 mi NNW 3.5 mph - N/A   Clear